CW0311 Weather Reports


time (UTC)temp
C
wind
direction
speed
KPH
gust
KPH
rain 1hr
cm
rain 24hr
cm
rain mn
cm
humidity
%
barometer
mb
20260507104534 7 305 1.6 12.9 0.00 0.51 0.10 87 1011.3
20260507103032 7 283 3.2 8.0 0.00 0.51 0.10 87 1011.3
20260507101531 7 281 3.2 14.5 0.00 0.51 0.10 87 1011.3
20260507100029 7 300 3.2 11.3 0.03 0.51 0.10 87 1010.9
20260507094528 7 308 3.2 16.1 0.05 0.51 0.10 87 1010.8
20260507093035 7 297 1.6 12.9 0.05 0.51 0.10 87 1010.9
20260507091536 7 316 3.2 11.3 0.05 0.51 0.10 87 1010.7
20260507090022 7 335 3.2 16.1 0.03 0.48 0.08 87 1010.9
20260507084525 7 308 3.2 16.1 0.00 0.46 0.05 87 1011.1
20260507083019 7 301 1.6 11.3 0.00 0.46 0.05 87 1011.3
20260507081520 7 297 3.2 11.3 0.00 0.46 0.05 87 1011.1
20260507080015 7 269 1.6 11.3 0.05 0.46 0.05 87 1011.1
20260507074514 7 307 3.2 14.5 0.05 0.46 0.05 87 1011.0
20260507073012 8 297 1.6 11.3 0.05 0.46 0.05 87 1011.0
20260507071511 8 318 4.8 11.3 0.03 0.43 0.03 87 1010.8
20260507070011 8 308 3.2 11.3 0.00 0.41 0.00 87 1010.8
20260507064507 8 301 1.6 8.0 0.00 0.41 0.00 87 1010.3
20260507063020 8 340 1.6 8.0 0.00 0.41 0.00 87 1010.2
20260507061505 8 291 1.6 14.5 0.00 0.41 0.00 87 1010.4
20260507060003 8 194 3.2 14.5 0.00 0.41 0.00 87 1010.7
20260507054601 8 275 3.2 11.3 0.00 0.41 0.00 87 1010.2
20260507053058 9 355 4.8 16.1 0.00 0.41 0.00 87 1010.6
20260507051600 9 288 1.6 12.9 0.00 0.41 0.00 87 1010.9
20260507050051 10 307 4.8 11.3 0.00 0.41 0.00 86 1010.8
20260507044552 10 279 3.2 11.3 0.00 0.41 0.00 86 1010.7
20260507043049 10 300 4.8 16.1 0.00 0.41 0.00 86 1010.6
20260507041545 11 299 4.8 11.3 0.00 0.41 0.00 86 1010.7
20260507040043 11 307 4.8 16.1 0.00 0.41 0.00 86 1010.5
20260507034542 11 323 9.7 16.1 0.00 0.41 0.41 86 1010.8
20260507033039 12 296 8.0 20.9 0.00 0.41 0.41 86 1010.7
20260507031536 12 285 8.0 19.3 0.00 0.41 0.41 86 1010.4
20260507030034 13 284 11.3 19.3 0.00 0.41 0.41 86 1010.2
20260507024535 13 293 8.0 19.3 0.00 0.41 0.41 86 1010.0
20260507023032 13 330 11.3 27.4 0.00 0.41 0.41 87 1010.0
20260507021532 13 293 8.0 20.9 0.00 0.41 0.41 87 1009.5
20260507020040 13 285 9.7 19.3 0.00 0.41 0.41 87 1009.7
20260507014530 13 281 6.4 22.5 0.03 0.41 0.41 87 1009.6
20260507013045 13 283 9.7 19.3 0.03 0.41 0.41 87 1009.7
20260507011529 13 295 8.0 17.7 0.03 0.41 0.41 87 1009.4
20260507010035 13 293 6.4 17.7 0.03 0.41 0.41 87 1009.7
20260507004527 13 258 8.0 16.1 0.00 0.38 0.38 87 1009.8
20260507003027 13 287 6.4 20.9 0.00 0.38 0.38 87 1009.7
20260507001530 13 284 6.4 17.7 0.00 0.38 0.38 87 1009.6
20260507000025 13 299 4.8 14.5 0.00 0.38 0.38 87 1009.6
20260506234531 13 292 4.8 12.9 0.03 0.38 0.38 87 1009.4
20260506233038 13 282 4.8 17.7 0.05 0.38 0.38 87 1009.3
20260506231528 13 280 4.8 11.3 0.10 0.38 0.38 87 1009.3
20260506230026 13 268 4.8 11.3 0.10 0.38 0.38 87 1009.2
20260506224523 13 275 4.8 9.7 0.08 0.36 0.36 87 1009.2
20260506223022 13 294 3.2 14.5 0.05 0.33 0.33 87 1009.3
20260506221521 13 301 4.8 20.9 0.03 0.28 0.28 87 1009.6
20260506220027 13 272 3.2 19.3 0.03 0.28 0.28 87 1009.4
20260506214519 13 296 1.6 9.7 0.03 0.28 0.28 87 1009.5
20260506213018 13 257 3.2 16.1 0.03 0.28 0.28 87 1009.6
20260506211524 13 243 4.8 14.5 0.00 0.25 0.25 87 1009.8
20260506210025 13 264 4.8 16.1 0.00 0.25 0.25 87 1009.9
20260506204515 13 299 4.8 14.5 0.03 0.25 0.25 87 1010.0
20260506203014 13 293 4.8 16.1 0.03 0.25 0.25 87 1010.1
20260506201514 13 298 8.0 22.5 0.05 0.25 0.25 87 1010.2
20260506200031 13 323 3.2 20.9 0.08 0.25 0.25 87 1010.1
20260506194512 13 267 4.8 12.9 0.08 0.23 0.23 87 1010.3
20260506193011 14 293 3.2 14.5 0.13 0.23 0.23 87 1010.4
20260506191510 14 245 1.6 11.3 0.15 0.20 0.20 87 1010.4
20260506190010 14 233 4.8 16.1 0.15 0.18 0.18 87 1010.6
20260506184509 15 287 1.6 9.7 0.15 0.15 0.15 87 1010.5
20260506183006 15 256 1.6 12.9 0.10 0.10 0.10 87 1010.8
20260506181512 15 268 6.4 14.5 0.05 0.05 0.05 86 1010.9
20260506180013 16 235 3.2 16.1 0.03 0.03 0.03 84 1011.1
20260506174504 17 285 9.7 24.1 0.00 0.00 0.00 81 1011.2
20260506173004 18 274 8.0 25.7 0.00 0.00 0.00 77 1011.1
20260506171504 20 258 3.2 24.1 0.00 0.00 0.00 74 1011.0
20260506170002 20 265 4.8 20.9 0.00 0.00 0.00 73 1010.8
20260506164502 20 258 6.4 14.5 0.00 0.00 0.00 72 1010.9
20260506163106 20 268 8.0 17.7 0.00 0.00 0.00 73 1011.1
20260506161558 20 268 6.4 25.7 0.00 0.00 0.00 72 1011.4
20260506160108 20 260 9.7 25.7 0.00 0.00 0.00 72 1011.5
20260506154555 20 281 8.0 16.1 0.00 0.00 0.00 74 1011.8
20260506153052 19 264 8.0 24.1 0.00 0.00 0.00 75 1012.0
20260506151551 19 286 4.8 30.6 0.00 0.00 0.00 75 1012.2
20260506150050 19 258 9.7 27.4 0.00 0.00 0.00 74 1012.4
20260506144548 19 283 3.2 25.7 0.00 0.00 0.00 76 1012.5
20260506143047 19 249 6.4 19.3 0.00 0.00 0.00 78 1012.6
20260506141604 18 262 6.4 20.9 0.00 0.00 0.00 77 1012.5
20260506140043 18 257 3.2 11.3 0.00 0.00 0.00 79 1012.4
20260506134542 18 283 8.0 16.1 0.00 0.00 0.00 79 1012.4
20260506133040 18 240 4.8 16.1 0.00 0.00 0.00 81 1012.5
20260506131539 17 276 6.4 24.1 0.00 0.00 0.00 82 1012.6
20260506130034 16 242 1.6 12.9 0.00 0.00 0.00 83 1012.9
20260506124537 16 252 6.4 17.7 0.00 0.00 0.00 83 1013.0
20260506123039 15 277 4.8 24.1 0.00 0.00 0.00 84 1012.8
20260506121527 15 252 1.6 11.3 0.00 0.00 0.00 85 1012.8
20260506120035 15 281 3.2 9.7 0.00 0.00 0.00 86 1013.2
20260506114526 13 235 0.0 11.3 0.00 0.00 0.00 86 1013.0
20260506113021 13 277 3.2 9.7 0.00 0.00 0.00 87 1013.4
20260506111520 12 278 0.0 9.7 0.00 0.00 0.00 87 1013.5
20260506110024 12 312 1.6 14.5 0.00 0.00 0.00 87 1013.6